"2009-01-18 00:00:00",550437,1.648,254.6,7.737,1.06,9.67,103.95,9.39,10.25,15.99,0,110.2,13.32,10.17,216.6
"2009-01-18 00:00:30",550438,1.497,252.3,4.242,0.704,9.51,103.9539,9.4,10.25,16.03,0,110.2,13.32,10.18,214.3
"2009-01-18 00:01:00",550439,2.908,259.4,8.62,1.295,11.88,103.9579,9.41,10.47,16.28,0,110.2,13.32,10.19,221.4
"2009-01-18 00:01:30",550440,2.51,248.8,6.851,1.34,11.38,103.9594,9.41,10.41,16.15,0,110.2,13.32,10.20,210.8
"2009-01-18 00:02:00",550441,2.445,246.1,8.28,1.281,10.68,103.9594,9.41,10.44,16.14,0,110.2,13.32,10.20,208.1
"2009-01-18 00:02:30",550442,1.147,245.1,3.773,0.083,8.1,103.9594,9.41,10.26,15.97,0,110.2,13.32,10.20,207.1
"2009-01-18 00:03:00",550443,1.183,246.5,5.311,0.057,7.739,103.9594,9.41,10.26,15.98,0,110.2,13.36,10.20,208.5
"2009-01-18 00:03:30",550444,1.029,242.5,4.869,0.115,7.837,103.958,9.41,10.25,15.96,0,110.2,13.36,10.19,204.5
"2009-01-18 00:04:00",550445,1.752,253.3,6.385,1.216,9.91,103.9566,9.4,10.38,16.09,0,110.2,13.32,10.19,215.3
"2009-01-18 00:04:30",550446,1.506,247,6.007,0.981,9.74,103.9518,9.39,10.36,16.09,0,110.2,13.32,10.18,209.0
"2009-01-18 00:05:00",550447,1.899,249.2,6.195,1.263,10.53,103.9515,9.39,10.29,16,0,110.2,13.33,10.17,211.2
"2009-01-18 00:05:30",550448,1.026,245.9,3.137,0.079,8.91,103.9516,9.39,10.27,15.95,0,110.2,13.37,10.18,207.9
"2009-01-18 00:06:00",550449,1.214,250.2,4.48,0.788,9.48,103.9515,9.39,10.38,16.1,0,110.2,13.34,10.17,212.2
"2009-01-18 00:06:30",550450,2.724,260.4,8.02,1.277,12.35,103.9499,9.39,10.45,16.14,0,110.2,13.34,10.17,222.4
"2009-01-18 00:07:00",550451,1.336,257.2,6.133,0.916,9.94,103.954,9.4,10.5,16.2,0,110.2,13.34,10.18,219.2
"2009-01-18 00:07:30",550452,2.22,263,5.133,1.275,9.9,103.956,9.4,10.3,16,0,110.2,13.34,10.19,225.0
"2009-01-18 00:08:00",550453,1.075,265.3,1.017,0.07,8.07,103.9589,9.41,10.25,15.96,0,110.2,13.37,10.19,227.3
"2009-01-18 00:08:30",550454,1.049,265.8,2.36,0.06,7.869,103.961,9.41,10.27,15.95,0,110.2,13.38,10.20,227.8
"2009-01-18 00:09:00",550455,1.082,259.7,2.137,0.063,8.02,103.9624,9.42,10.26,15.94,0,110.2,13.38,10.20,221.7
"2009-01-18 00:09:30",550456,1.451,256.2,4.514,0.899,9.32,103.961,9.41,10.41,16.08,0,110.1,13.35,10.20,218.2
"2009-01-18 00:10:00",550457,1.881,258.5,5.269,1.137,9.81,103.9607,9.41,10.33,15.98,0,110.2,13.35,10.20,220.5
"2009-01-18 00:10:30",550458,1.246,260.6,2.366,0.116,9.3,103.9607,9.41,10.27,15.93,0,110.1,13.39,10.20,222.6
"2009-01-18 00:11:00",550459,1.589,262.5,4.549,0.789,10.14,103.9607,9.41,10.43,16.08,0,110.1,13.35,10.20,224.5
"2009-01-18 00:11:30",550460,2.308,265.2,7.468,1.285,10.8,103.9607,9.41,10.32,15.94,0,110.1,13.35,10.20,227.2
"2009-01-18 00:12:00",550461,2.599,269.6,7.694,1.347,11.64,103.9607,9.41,10.49,16.12,0,110.1,13.35,10.20,231.6
"2009-01-18 00:12:30",550462,3.077,272.4,6.496,1.138,12.01,103.9607,9.41,10.46,16.08,0,110.1,13.35,10.20,234.4
"2009-01-18 00:13:00",550463,1.29,262,3.229,0.665,8.18,103.9607,9.41,10.29,15.87,0,110.1,13.35,10.20,224.0
"2009-01-18 00:13:30",550464,0.98,264.1,4.344,0.05,7.793,103.9607,9.41,10.27,15.85,0,110.1,13.39,10.20,226.1
"2009-01-18 00:14:00",550465,1.063,261.8,2.976,0.055,7.796,103.961,9.41,10.28,15.85,0,110.1,13.39,10.20,223.8
"2009-01-18 00:14:30",550466,1.328,258.9,3.933,0.895,8.39,103.9585,9.41,10.28,15.85,0,110.1,13.36,10.19,220.9
"2009-01-18 00:15:00",550467,1.946,270.4,8.59,1.259,11,103.9585,9.41,10.42,15.99,0,110.1,13.36,10.19,232.4
"2009-01-18 00:15:30",550468,0.866,253.4,2.158,0.242,8.67,103.9566,9.4,10.28,15.84,0,110.1,13.36,10.19,215.4
"2009-01-18 00:16:00",550469,0.697,251.6,4.136,0.051,8.76,103.9514,9.39,10.28,15.83,0,110.1,13.4,10.17,213.6
"2009-01-18 00:16:30",550470,1.013,246.5,7.539,1.076,9.9,103.9491,9.38,10.43,15.97,0,110.1,13.36,10.17,208.5
"2009-01-18 00:17:00",550471,1.443,242.4,8.45,1.276,10.05,103.9536,9.4,10.29,15.84,0,110.1,13.36,10.18,204.4
"2009-01-18 00:17:30",550472,1.644,251.7,9.79,1.354,10.44,103.9574,9.4,10.37,15.9,0,110.1,13.36,10.19,213.7
"2009-01-18 00:18:00",550473,1.942,252.3,6.107,1.346,11.25,103.9609,9.41,10.44,16,0,110.1,13.36,10.20,214.3
"2009-01-18 00:18:30",550474,1.386,246.5,10.69,1.237,9.31,103.9545,9.4,10.27,15.86,0,110.1,13.36,10.18,208.5
"2009-01-18 00:19:00",550475,0.419,229.1,3.471,0.032,7.732,103.9513,9.39,10.25,15.81,0,110.1,13.4,10.17,191.1
"2009-01-18 00:19:30",550476,0.403,228.7,3.164,0.028,7.539,103.9395,9.36,10.23,15.81,0,110.1,13.4,10.14,190.7
"2009-01-18 00:20:00",550477,0.346,232.7,3.589,0.038,7.686,103.9344,9.35,10.21,15.83,0,110.1,13.4,10.13,194.7
"2009-01-18 00:20:30",550478,0.666,236.5,4.855,0.902,8.46,103.9316,9.34,10.23,15.82,0,110.1,13.36,10.12,198.5
"2009-01-18 00:21:00",550479,0.703,230.4,6.358,1.038,8.79,103.9305,9.34,10.33,15.94,0,110.1,13.36,10.12,192.4
"2009-01-18 00:21:30",550480,1.298,233.6,8.33,1.273,9.76,103.9282,9.33,10.26,15.86,0,110.1,13.37,10.12,195.6
"2009-01-18 00:22:00",550481,0.207,234.5,3.789,0.032,8.1,103.9282,9.33,10.21,15.84,0,110,13.41,10.12,196.5
"2009-01-18 00:22:30",550482,0.198,245.5,9.67,0.041,8.56,103.9282,9.33,10.22,15.85,0,110,13.41,10.12,207.5
"2009-01-18 00:23:00",550483,0.134,261.4,7.15,0.037,9.71,103.9282,9.33,10.26,15.91,0,110,13.41,10.12,223.4
"2009-01-18 00:23:30",550484,1.421,268.3,6.975,1.335,11.17,103.9297,9.33,10.26,15.9,0,110,13.38,10.12,230.3
"2009-01-18 00:24:00",550485,0.626,265.1,6.071,0.913,10.31,103.9332,9.34,10.37,16.03,0,110,13.38,10.13,227.1
"2009-01-18 00:24:30",550486,0.219,267.5,2.801,0.03,8.97,103.9361,9.35,10.22,15.86,0,110,13.41,10.14,229.5
"2009-01-18 00:25:00",550487,0.874,270.8,9.24,1.183,9.95,103.9397,9.36,10.3,15.95,0,110,13.38,10.14,232.8
"2009-01-18 00:25:30",550488,1.338,281.8,7.214,1.292,10.64,103.9414,9.36,10.4,16.03,0,110,13.38,10.15,243.8
"2009-01-18 00:26:00",550489,0.047,280.2,5.381,0.041,8.32,103.941,9.36,10.32,15.96,0,110,13.42,10.15,242.2
"2009-01-18 00:26:30",550490,-0.066,293.3,9.42,0.035,7.547,103.9361,9.35,10.2,15.85,0,110,13.42,10.14,255.3
"2009-01-18 00:27:00",550491,-0.099,308.2,37.03,0.016,7.311,103.9292,9.33,10.19,15.85,0,110,13.42,10.12,270.2
"2009-01-18 00:27:30",550492,-0.109,217.5,29.42,0.005,7.594,103.9292,9.33,10.2,15.87,0,110,13.42,10.12,179.5
"2009-01-18 00:28:00",550493,-0.113,259.3,81.1,0,7.782,103.9295,9.33,10.19,15.87,0,110,13.43,10.12,221.3
"2009-01-18 00:28:30",550494,-0.113,186,20.37,0,8.22,103.9242,9.32,10.16,15.9,0,110,13.43,10.10,148.0
"2009-01-18 00:29:00",550495,-0.099,179.4,6.326,0.008,8.55,103.9126,9.29,10.17,15.96,0,110,13.43,10.08,141.4
"2009-01-18 00:29:30",550496,0.998,190.6,6.436,1.271,10.61,103.9005,9.26,10.29,16.14,0,110,13.39,10.04,152.6
"2009-01-18 00:30:00",550497,-0.101,184.6,3.122,0.009,8.94,103.8957,9.25,10.14,16.02,0,110,13.43,10.03,146.6
"2009-01-18 00:30:30",550498,-0.049,183.3,1.861,0.04,8.5,103.8889,9.23,10.13,16.06,0,110,13.43,10.01,145.3
"2009-01-18 00:31:00",550499,-0.015,183.9,1.847,0.014,7.889,103.8807,9.21,10.12,16.08,0,110,13.43,9.99,145.9
"2009-01-18 00:31:30",550500,-0.067,192.8,5.636,0.04,7.908,103.8649,9.17,10.1,16.09,0,110,13.43,9.95,154.8
"2009-01-18 00:32:00",550501,-0.113,227.9,21.67,0.003,8.26,103.853,9.14,10.09,16.07,0,110,13.43,9.92,189.9
"2009-01-18 00:32:30",550502,-0.057,295.7,19.64,0.044,8.47,103.8299,9.08,10.06,16.08,0,110,13.44,9.86,257.7
"2009-01-18 00:33:00",550503,0.556,307.8,6.826,0.977,9.09,103.8282,9.07,10.05,16.11,0,110,13.39,9.86,269.8
"2009-01-18 00:33:30",550504,1.466,315.8,6.894,1.341,10.66,103.8444,9.12,10.16,16.25,0,110,13.4,9.90,277.8
"2009-01-18 00:34:00",550505,0.75,306.7,7.702,1.055,9.37,103.8539,9.14,10.05,16.1,0,110,13.4,9.92,268.7
"2009-01-18 00:34:30",550506,0.661,308.8,5.948,1.004,9.06,103.8683,9.18,10.16,16.21,0,110,13.39,9.96,270.8
"2009-01-18 00:35:00",550507,1.2,308.6,6.267,1.259,9.32,103.8735,9.19,10.16,16.19,0,110,13.39,9.97,270.6
"2009-01-18 00:35:30",550508,1.643,309.4,7.947,1.33,10.47,103.8814,9.21,10.13,16.12,0,110,13.4,9.99,271.4
"2009-01-18 00:36:00",550509,0.309,297.5,6.64,0.043,7.974,103.8888,9.23,10.07,16.05,0,110,13.43,10.01,259.5
"2009-01-18 00:36:30",550510,0.447,298.5,3.448,0.465,8.16,103.8911,9.24,10.09,16.06,0,110,13.43,10.02,260.5
"2009-01-18 00:37:00",550511,1.222,296.3,11.19,1.297,9.38,103.8949,9.25,10.15,16.1,0,110,13.4,10.03,258.3
"2009-01-18 00:37:30",550512,1.245,291.1,6.389,1.249,10,103.8955,9.25,10.18,16.15,0,110,13.4,10.03,253.1
"2009-01-18 00:38:00",550513,0.274,287.5,5.753,0.066,8.02,103.8967,9.25,10.08,16.04,0,110,13.44,10.03,249.5
"2009-01-18 00:38:30",550514,0.318,282.7,6.742,0.041,8.14,103.895,9.25,10.07,16.07,0,110,13.45,10.03,244.7
"2009-01-18 00:39:00",550515,0.293,285.6,3.175,0.04,8.28,103.8888,9.23,10.07,16.08,0,110,13.45,10.01,247.6
"2009-01-18 00:39:30",550516,0.358,292.6,3.348,0.036,8.26,103.884,9.22,10.11,16.1,0,110,13.45,10.00,254.6
"2009-01-18 00:40:00",550517,1.627,301.4,5.221,1.323,10.72,103.8809,9.21,10.17,16.16,0,110,13.41,9.99,263.4
"2009-01-18 00:40:30",550518,0.708,299.9,4.682,0.803,9.21,103.88,9.21,10.22,16.21,0,110,13.42,9.99,261.9
"2009-01-18 00:41:00",550519,0.631,304.1,1.994,0.495,8.46,103.88,9.21,10.08,16.05,0,110,13.42,9.99,266.1
"2009-01-18 00:41:30",550520,1.331,303.5,6.318,1.15,10.04,103.88,9.21,10.24,16.18,0,109.9,13.42,9.99,265.5
"2009-01-18 00:42:00",550521,1.812,309.5,8.3,1.27,9.89,103.8803,9.21,10.16,16.11,0,110,13.42,9.99,271.5
"2009-01-18 00:42:30",550522,1.849,306.7,8.85,1.319,10.74,103.8803,9.21,10.24,16.2,0,109.9,13.42,9.99,268.7
"2009-01-18 00:43:00",550523,2.008,308.9,5.875,1.269,9.91,103.88,9.21,10.23,16.17,0,109.9,13.42,9.99,270.9
"2009-01-18 00:43:30",550524,1.743,310.6,4.146,1.119,9.61,103.88,9.21,10.22,16.16,0,109.9,13.42,9.99,272.6
"2009-01-18 00:44:00",550525,1.146,305.8,3.006,0.459,7.969,103.8833,9.22,10.1,16.03,0,109.9,13.42,10.00,267.8
"2009-01-18 00:44:30",550526,1.102,304.9,0.648,0.037,7.962,103.8873,9.23,10.09,16.05,0,109.9,13.45,10.01,266.9
"2009-01-18 00:45:00",550527,2.115,310.9,6.661,1.297,10.25,103.8931,9.24,10.21,16.16,0,109.9,13.42,10.02,272.9
"2009-01-18 00:45:30",550528,1.349,305.9,3.343,0.668,8.81,103.8985,9.25,10.23,16.23,0,109.9,13.42,10.04,267.9
"2009-01-18 00:46:00",550529,1.912,308.4,5.83,1.17,9.64,103.9034,9.27,10.15,16.15,0,109.9,13.42,10.05,270.4
"2009-01-18 00:46:30",550530,1.693,308.2,6.014,1.011,9.81,103.9095,9.28,10.24,16.26,0,109.9,13.42,10.07,270.2
"2009-01-18 00:47:00",550531,1.785,308.2,5.24,1.08,9.45,103.9188,9.31,10.22,16.28,0,109.9,13.42,10.09,270.2
"2009-01-18 00:47:30",550532,2.136,311.1,6.105,1.245,10.37,103.9249,9.32,10.36,16.4,0,109.9,13.42,10.11,273.1
"2009-01-18 00:48:00",550533,2.653,315.7,6.626,1.28,11.4,103.9263,9.33,10.35,16.39,0,109.9,13.42,10.11,277.7
"2009-01-18 00:48:30",550534,1.962,314,5.974,1.15,9.79,103.9278,9.33,10.29,16.3,0,109.9,13.42,10.11,276.0
"2009-01-18 00:49:00",550535,1.338,311.8,0.463,0.014,7.87,103.9307,9.34,10.15,16.16,0,109.9,13.46,10.12,273.8
"2009-01-18 00:49:30",550536,1.389,313.2,0.503,0.036,7.93,103.9322,9.34,10.15,16.15,0,109.9,13.45,10.13,275.2
"2009-01-18 00:50:00",550537,1.597,314.4,2.539,0.679,8.36,103.9316,9.34,10.19,16.17,0,109.9,13.42,10.12,276.4
"2009-01-18 00:50:30",550538,2.662,321,7.12,1.309,10.71,103.9229,9.32,10.29,16.24,0,109.9,13.42,10.10,283.0
"2009-01-18 00:51:00",550539,1.489,316.5,1.384,0.024,8.4,103.9158,9.3,10.15,16.08,0,109.9,13.45,10.08,278.5
"2009-01-18 00:51:30",550540,1.502,318.6,1.02,0.032,8.57,103.9153,9.3,10.23,16.16,0,109.9,13.46,10.08,280.6
"2009-01-18 00:52:00",550541,2.553,325.3,6.545,1.27,10.51,103.9153,9.3,10.22,16.13,0,109.9,13.42,10.08,287.3
"2009-01-18 00:52:30",550542,2.791,329.8,6.404,1.274,10.96,103.9153,9.3,10.37,16.31,0,109.9,13.42,10.08,291.8
"2009-01-18 00:53:00",550543,3.255,332.5,6.569,1.226,11.93,103.911,9.29,10.36,16.32,0,109.9,13.42,10.07,294.5
"2009-01-18 00:53:30",550544,1.815,327.2,3.78,0.783,8.76,103.9039,9.27,10.23,16.18,0,109.9,13.42,10.05,289.2
"2009-01-18 00:54:00",550545,1.581,328,1.299,0.033,7.876,103.8986,9.25,10.14,16.09,0,109.9,13.46,10.04,290.0
"2009-01-18 00:54:30",550546,2.381,334.8,5.765,1.177,9.02,103.8983,9.25,10.13,16.11,0,109.9,13.42,10.04,296.8
"2009-01-18 00:55:00",550547,2.638,337.6,6.638,1.303,10.6,103.8983,9.25,10.29,16.27,0,109.9,13.42,10.04,299.6
"2009-01-18 00:55:30",550548,1.929,334.1,3.566,0.787,8.71,103.8983,9.25,10.12,16.13,0,109.9,13.43,10.04,296.1
"2009-01-18 00:56:00",550549,2.153,336.5,5.578,1.006,9.65,103.8983,9.25,10.18,16.2,0,109.9,13.43,10.04,298.5
"2009-01-18 00:56:30",550550,2.269,336.8,5.484,1.142,9.69,103.8983,9.25,10.19,16.22,0,109.9,13.43,10.04,298.8
"2009-01-18 00:57:00",550551,3.3,343.3,6.238,1.254,12.49,103.8983,9.25,10.32,16.33,0,109.9,13.43,10.04,305.3
"2009-01-18 00:57:30",550552,2.342,336.7,5.384,1.178,9.65,103.898,9.25,10.26,16.28,0,109.9,13.43,10.04,298.7
"2009-01-18 00:58:00",550553,2.739,339.9,6.294,1.285,10.84,103.8941,9.24,10.29,16.27,0,109.9,13.43,10.03,301.9
"2009-01-18 00:58:30",550554,1.893,335.2,3.906,0.879,8.59,103.885,9.22,10.11,16.1,0,109.9,13.43,10.00,297.2
"2009-01-18 00:59:00",550555,1.614,327.7,1.947,0.478,8.05,103.8709,9.18,10.09,16.09,0,109.9,13.43,9.97,289.7
"2009-01-18 00:59:30",550556,2.603,331.3,7.05,1.309,10.33,103.865,9.17,10.25,16.27,0,109.9,13.43,9.95,293.3
"2009-01-18 01:00:00",550557,2.068,325.8,4.577,0.91,8.69,103.8665,9.17,10.08,16.13,0,109.9,13.43,9.96,287.8
"2009-01-18 01:00:30",550558,1.931,323.4,4.662,0.898,9.06,103.8673,9.17,10.08,16.12,0,109.9,13.43,9.96,285.4
"2009-01-18 01:01:00",550559,2.095,320.3,4.583,0.964,9.27,103.8697,9.18,10.16,16.25,0,109.9,13.44,9.96,282.3
"2009-01-18 01:01:30",550560,3.464,323.5,6.284,1.24,11.6,103.8738,9.19,10.19,16.26,0,109.9,13.44,9.98,285.5
"2009-01-18 01:02:00",550561,2.659,323.7,7.03,1.216,9.96,103.8716,9.19,10.19,16.31,0,109.9,13.44,9.97,285.7
"2009-01-18 01:02:30",550562,2.057,323.7,3.938,0.485,8.65,103.8671,9.17,10.18,16.32,0,109.9,13.47,9.96,285.7
"2009-01-18 01:03:00",550563,3.331,331.5,6.83,1.292,10.2,103.8638,9.17,10.07,16.23,0,109.9,13.44,9.95,293.5
"2009-01-18 01:03:30",550564,3.104,328.5,6.487,1.332,10.31,103.8622,9.16,10.22,16.37,0,109.9,13.44,9.95,290.5
"2009-01-18 01:04:00",550565,2.301,325.5,3.632,0.851,8.63,103.8569,9.15,10.14,16.32,0,109.9,13.44,9.93,287.5
"2009-01-18 01:04:30",550566,2.444,328.7,5.71,0.926,9.52,103.8492,9.13,10.08,16.28,0,109.9,13.44,9.91,290.7
"2009-01-18 01:05:00",550567,2.84,329.7,6.443,1.224,10.37,103.8513,9.13,10.17,16.39,0,109.9,13.44,9.92,291.7
"2009-01-18 01:05:30",550568,3.328,332,6.819,1.301,10.64,103.8627,9.16,10.18,16.4,0,109.9,13.44,9.95,294.0
"2009-01-18 01:06:00",550569,3.304,333.7,6.105,1.292,10.66,103.872,9.19,10.08,16.37,0,109.9,13.43,9.97,295.7
"2009-01-18 01:06:30",550570,2.228,330.2,0.832,0.036,8.56,103.8837,9.22,10.12,16.45,0,109.9,13.47,10.00,292.2
"2009-01-18 01:07:00",550571,3.292,337.3,6.867,1.287,9.98,103.8926,9.24,10.07,16.36,0,109.9,13.43,10.02,299.3
"2009-01-18 01:07:30",550572,2.793,336.3,4.412,0.84,9.38,103.8935,9.24,10.2,16.59,0,109.9,13.43,10.03,298.3
"2009-01-18 01:08:00",550573,4.535,340.8,6.544,1.198,11.78,103.8949,9.25,10.16,16.57,0,109.9,13.43,10.03,302.8
"2009-01-18 01:08:30",550574,3.24,334,4.435,0.709,9.63,103.897,9.25,10.24,16.6,0,109.9,13.43,10.03,296.0
"2009-01-18 01:09:00",550575,4.366,339.5,6.572,1.324,10.85,103.9193,9.31,10.14,16.48,0,109.9,13.43,10.09,301.5
"2009-01-18 01:09:30",550576,4.569,342.1,6.912,1.3,11.36,103.9321,9.34,10.33,16.62,0,109.9,13.43,10.13,304.1
"2009-01-18 01:10:00",550577,4.299,342.8,5.977,1.244,10.65,103.9341,9.35,10.21,16.44,0,109.9,13.43,10.13,304.8
"2009-01-18 01:10:30",550578,3.271,339.7,0.622,0.041,8.59,103.9491,9.38,10.22,16.4,0,109.9,13.47,10.17,301.7
"2009-01-18 01:11:00",550579,3.686,342.9,5.199,0.989,9.37,103.9502,9.39,10.23,16.38,0,109.9,13.44,10.17,304.9
"2009-01-18 01:11:30",550580,4.56,346.8,6.75,1.3,10.88,103.9499,9.39,10.26,16.41,0,109.9,13.44,10.17,308.8
"2009-01-18 01:12:00",550581,4.84,347.9,6.657,1.312,11.83,103.9502,9.39,10.32,16.46,0,109.9,13.44,10.17,309.9
"2009-01-18 01:12:30",550582,3.695,341.6,5.017,0.895,9.96,103.9505,9.39,10.36,16.47,0,109.9,13.44,10.17,303.6
"2009-01-18 01:13:00",550583,4.661,344.6,6.625,1.345,11.43,103.9508,9.39,10.42,16.52,0,109.9,13.44,10.17,306.6
"2009-01-18 01:13:30",550584,4.525,342.8,6.756,1.309,11.04,103.9624,9.42,10.38,16.35,0,109.9,13.44,10.20,304.8
"2009-01-18 01:14:00",550585,3.492,338.6,3.363,0.518,9.14,103.9671,9.43,10.36,16.3,0,109.9,13.44,10.21,300.6
"2009-01-18 01:14:30",550586,3.323,338.6,0.578,0.037,8.45,103.9711,9.44,10.26,16.09,0,109.9,13.47,10.23,300.6
"2009-01-18 01:15:00",550587,3.302,338.9,0.627,0.035,8.69,103.9827,9.47,10.27,16.05,0,109.9,13.48,10.25,300.9
"2009-01-18 01:15:30",550588,4.114,343.3,6.232,1.23,10.7,103.9852,9.48,10.46,16.14,0,109.9,13.44,10.26,305.3
"2009-01-18 01:16:00",550589,5.297,350.3,6.086,1.168,12.87,103.9943,9.5,10.5,16.1,0,109.9,13.44,10.28,312.3
"2009-01-18 01:16:30",550590,4.12,343.6,5.689,1.21,10.25,104.0005,9.52,10.38,16.03,0,109.9,13.44,10.30,305.6
"2009-01-18 01:17:00",550591,5.287,350.3,5.92,1.051,12.7,104.0014,9.52,10.55,16.3,0,109.9,13.44,10.30,312.3
"2009-01-18 01:17:30",550592,4.605,346.5,6.602,1.269,10.35,104.0011,9.52,10.43,16.19,0,109.9,13.44,10.30,308.5
"2009-01-18 01:18:00",550593,3.391,342.5,0.675,0.039,8.23,104.0011,9.52,10.31,16.11,0,109.9,13.47,10.30,304.5
"2009-01-18 01:18:30",550594,3.319,346,1.541,0.086,8.35,103.9988,9.51,10.32,16.15,0,109.9,13.47,10.30,308.0
"2009-01-18 01:19:00",550595,3.007,349.7,1.47,0.192,8.64,103.9892,9.49,10.32,16.19,0,109.9,13.48,10.27,311.7
"2009-01-18 01:19:30",550596,3.109,353.3,4.983,0.77,9.79,103.9793,9.46,10.38,16.32,0,109.9,13.44,10.25,315.3
"2009-01-18 01:20:00",550597,4.69,1.649,5.989,1.189,13.16,103.9666,9.43,10.53,16.5,0,110,13.44,10.21,323.6
"2009-01-18 01:20:30",550598,4.459,1.128,6.308,1.181,13.18,103.9539,9.4,10.58,16.6,0,109.9,13.44,10.18,323.1
"2009-01-18 01:21:00",550599,4.535,359.9,6.657,1.23,11.64,103.9462,9.38,10.42,16.52,0,109.9,13.44,10.16,321.9
"2009-01-18 01:21:30",550600,3.164,350.3,1.158,0.144,8.08,103.9335,9.34,10.25,16.41,0,109.9,13.48,10.13,312.3
"2009-01-18 01:22:00",550601,3.38,347.4,1.289,0.13,7.95,103.9327,9.34,10.21,16.38,0,109.9,13.47,10.13,309.4
"2009-01-18 01:22:30",550602,3.377,345.2,0.808,0.039,8.31,103.933,9.34,10.21,16.35,0,109.9,13.47,10.13,307.2
"2009-01-18 01:23:00",550603,3.346,344.1,0.517,0.039,8.79,103.933,9.34,10.2,16.33,0,109.9,13.47,10.13,306.1
"2009-01-18 01:23:30",550604,3.901,345.8,4.906,0.966,9.89,103.9327,9.34,10.26,16.39,0,109.9,13.43,10.13,307.8
"2009-01-18 01:24:00",550605,5.572,354.9,4.741,0.919,13.72,103.9318,9.34,10.51,16.66,0,109.9,13.44,10.12,316.9
"2009-01-18 01:24:30",550606,5.815,356.6,3.37,0.615,13.86,103.9321,9.34,10.49,16.66,0,109.9,13.43,10.13,318.6
"2009-01-18 01:25:00",550607,4.78,350.3,6.618,1.286,11.06,103.9318,9.34,10.34,16.54,0,109.9,13.43,10.12,312.3
"2009-01-18 01:25:30",550608,3.384,343,0.474,0.037,8.05,103.9332,9.34,10.2,16.39,0,109.9,13.47,10.13,305.0
"2009-01-18 01:26:00",550609,3.33,342.8,0.471,0.04,8.03,103.9327,9.34,10.2,16.39,0,109.9,13.47,10.13,304.8
"2009-01-18 01:26:30",550610,3.277,342.6,0.728,0.03,8.41,103.933,9.34,10.18,16.42,0,109.9,13.47,10.13,304.6
"2009-01-18 01:27:00",550611,3.178,341.8,0.595,0.047,8.81,103.9327,9.34,10.19,16.43,0,110,13.47,10.13,303.8
"2009-01-18 01:27:30",550612,4.599,348.8,6.599,1.32,12.1,103.9303,9.34,10.34,16.58,0,109.9,13.44,10.12,310.8
"2009-01-18 01:28:00",550613,5.079,350.2,6.037,0.994,13.22,103.9306,9.34,10.47,16.73,0,109.9,13.44,10.12,312.2
"2009-01-18 01:28:30",550614,5.425,352.3,3.904,0.557,13.5,103.9234,9.32,10.48,16.77,0,110,13.44,10.10,314.3
"2009-01-18 01:29:00",550615,3.377,340.6,6.059,1.061,9.35,103.9198,9.31,10.24,16.55,0,109.9,13.44,10.09,302.6
"2009-01-18 01:29:30",550616,2.774,338.4,0.78,0.045,7.803,103.9156,9.3,10.15,16.49,0,110,13.48,10.08,300.4
"2009-01-18 01:30:00",550617,2.68,339.7,0.858,0.045,7.77,103.9134,9.29,10.13,16.51,0,109.9,13.47,10.08,301.7
"2009-01-18 01:30:30",550618,2.642,341.5,0.882,0.04,8.17,103.9038,9.27,10.13,16.51,0,110,13.48,10.05,303.5
"2009-01-18 01:31:00",550619,3.583,346.6,6.015,1.271,9.88,103.9002,9.26,10.12,16.52,0,109.9,13.44,10.04,308.6
"2009-01-18 01:31:30",550620,3.672,346.7,6.281,1.245,11.14,103.8982,9.25,10.28,16.7,0,110,13.44,10.04,308.7
"2009-01-18 01:32:00",550621,4.236,349.3,6.505,1.307,12.34,103.8984,9.25,10.35,16.78,0,110,13.44,10.04,311.3
"2009-01-18 01:32:30",550622,4.881,351.8,5.287,1.035,13.01,103.9024,9.26,10.4,16.91,0,110,13.44,10.05,313.8
"2009-01-18 01:33:00",550623,3.59,345.5,6.425,1.171,9.93,103.901,9.26,10.35,16.9,0,110,13.44,10.05,307.5
"2009-01-18 01:33:30",550624,2.859,343.6,2.523,0.471,8.03,103.9019,9.26,10.13,16.66,0,110,13.44,10.05,305.6
"2009-01-18 01:34:00",550625,2.859,343.1,0.88,0.058,7.781,103.9025,9.26,10.12,16.63,0,110,13.48,10.05,305.1
"2009-01-18 01:34:30",550626,2.865,343,0.878,0.042,8.17,103.9002,9.26,10.12,16.63,0,110,13.48,10.04,305.0
"2009-01-18 01:35:00",550627,3.356,347.5,6.025,1.037,10.01,103.9019,9.26,10.16,16.65,0,110,13.44,10.05,309.5
"2009-01-18 01:35:30",550628,4.255,352.7,6.435,1.314,12.47,103.8999,9.26,10.38,16.85,0,109.9,13.45,10.04,314.7
"2009-01-18 01:36:00",550629,4.346,351.5,6.936,1.262,12.38,103.8993,9.26,10.39,16.9,0,110,13.45,10.04,313.5
"2009-01-18 01:36:30",550630,3.922,348.9,6.439,1.214,10.6,103.8993,9.26,10.2,16.73,0,110,13.44,10.04,310.9
"2009-01-18 01:37:00",550631,4.092,349.8,6.625,1.275,10.55,103.8996,9.26,10.24,16.76,0,110,13.44,10.04,311.8
"2009-01-18 01:37:30",550632,3.098,344,4.39,0.781,9.1,103.9007,9.26,10.29,16.81,0,110,13.44,10.04,306.0
"2009-01-18 01:38:00",550633,2.856,341.5,0.592,0.025,8.18,103.9067,9.28,10.12,16.6,0,110,13.48,10.06,303.5
"2009-01-18 01:38:30",550634,2.857,339.8,0.591,0.018,8.51,103.9152,9.3,10.12,16.58,0,110,13.48,10.08,301.8
"2009-01-18 01:39:00",550635,4.415,345.8,6.462,1.323,11.8,103.9151,9.3,10.28,16.71,0,110,13.44,10.08,307.8
"2009-01-18 01:39:30",550636,4.504,345.6,6.283,1.294,12.19,103.9157,9.3,10.39,16.84,0,110,13.44,10.08,307.6
"2009-01-18 01:40:00",550637,4.69,345.5,6.597,1.283,12.01,103.9117,9.29,10.36,16.82,0,110,13.44,10.07,307.5
"2009-01-18 01:40:30",550638,4.088,343.2,5.973,1.264,9.84,103.9036,9.27,10.18,16.69,0,110,13.44,10.05,305.2
"2009-01-18 01:41:00",550639,4.323,346.5,7.08,1.271,10.09,103.8996,9.26,10.18,16.68,0,110,13.44,10.04,308.5
"2009-01-18 01:41:30",550640,3.191,343.5,4.162,0.65,8.74,103.8988,9.26,10.26,16.79,0,110,13.44,10.04,305.5
"2009-01-18 01:42:00",550641,3.906,347.9,6.117,1.277,10.03,103.8988,9.26,10.12,16.66,0,110,13.44,10.04,309.9
"2009-01-18 01:42:30",550642,3.986,350.2,6.347,1.26,10.53,103.8993,9.26,10.18,16.71,0,110,13.44,10.04,312.2
"2009-01-18 01:43:00",550643,3.223,349.3,6.531,0.969,10.06,103.8996,9.26,10.26,16.81,0,110,13.44,10.04,311.3
"2009-01-18 01:43:30",550644,4.688,355.7,5.431,1.118,12.98,103.8996,9.26,10.25,16.78,0,110,13.44,10.04,317.7
"2009-01-18 01:44:00",550645,3.972,351.7,6.573,1.275,11.24,103.8996,9.26,10.34,16.88,0,110,13.44,10.04,313.7
"2009-01-18 01:44:30",550646,3.598,349.1,6.84,1.217,10.11,103.8988,9.26,10.14,16.72,0,110,13.44,10.04,311.1
"2009-01-18 01:45:00",550647,2.698,342.4,1.539,0.105,7.924,103.8928,9.24,10.07,16.68,0,110,13.48,10.02,304.4
"2009-01-18 01:45:30",550648,2.718,339.2,1.137,0.06,8.11,103.8847,9.22,10.13,16.74,0,110,13.48,10.00,301.2
"2009-01-18 01:46:00",550649,3.86,345.3,5.818,1.32,10.68,103.881,9.21,10.16,16.81,0,110,13.45,9.99,307.3
"2009-01-18 01:46:30",550650,3.822,344.6,6.805,1.232,10.29,103.8702,9.18,10.06,16.73,0,110,13.45,9.97,306.6
"2009-01-18 01:47:00",550651,3.934,345.6,7.048,1.227,10.55,103.866,9.17,10.18,16.84,0,110,13.45,9.96,307.6
"2009-01-18 01:47:30",550652,4.032,346.7,6.599,1.276,10.37,103.8648,9.17,10.12,16.83,0,110,13.45,9.95,308.7
"2009-01-18 01:48:00",550653,4.816,351.8,6.217,1.18,12.08,103.8657,9.17,10.3,17.03,0,110,13.45,9.95,313.8
"2009-01-18 01:48:30",550654,3.728,345,6.983,1.143,9.38,103.8654,9.17,10.03,16.78,0,110,13.45,9.95,307.0
"2009-01-18 01:49:00",550655,3.004,342.7,1.478,0.05,7.966,103.8657,9.17,10.01,16.79,0,110,13.48,9.95,304.7
"2009-01-18 01:49:30",550656,2.972,342.7,1.186,0.044,8.04,103.8623,9.16,10,16.78,0,110,13.48,9.95,304.7
"2009-01-18 01:50:00",550657,4.035,349.2,6.363,1.287,10.76,103.8541,9.14,10.21,17.03,0,110,13.45,9.92,311.2